RYR99LW EPKK-EPSC

Flight info

Callsign RYR99LW
Flight time 0h 54m
Altitude 32000
Route LUMVE L619 DENKO L996 XERBI DCT FORFE DCT ZAWIK
Aircraft B38M/M-SADFGIJ1LRWY/SB1

Departure

Time 2026-04-17 11:40
Airport Kraków John Paul II International Airport (EPKK)

Arrival

Time 2026-04-17 12:34
Airport Solidarity Szczecin–Goleniów Airport (EPSC)
Time Latitude Longitude Altitude Speed Heading
2026-04-17 10:54 50.07312 19.80005 802 ft 0 kts 168°
2026-04-17 11:11 50.07313 19.80005 802 ft 0 kts 168°
2026-04-17 11:29 50.07322 19.80002 802 ft 3 kts 168°
2026-04-17 11:29 50.07342 19.79995 802 ft 3 kts 168°
2026-04-17 11:29 50.07362 19.79989 802 ft 3 kts 168°
2026-04-17 11:29 50.07382 19.79982 802 ft 3 kts 168°
2026-04-17 11:30 50.07401 19.79975 802 ft 3 kts 168°
2026-04-17 11:30 50.07403 19.79975 802 ft 0 kts 168°
2026-04-17 11:32 50.07402 19.79976 802 ft 0 kts 152°
2026-04-17 11:32 50.07401 19.79980 802 ft 0 kts 122°
2026-04-17 11:33 50.07405 19.79988 802 ft 0 kts 42°
2026-04-17 11:33 50.07414 19.79984 802 ft 5 kts 338°
2026-04-17 11:33 50.07479 19.79942 802 ft 13 kts 352°
2026-04-17 11:33 50.07554 19.79918 802 ft 12 kts 347°
2026-04-17 11:34 50.07629 19.79893 802 ft 10 kts 350°
2026-04-17 11:34 50.07690 19.79877 802 ft 6 kts
2026-04-17 11:34 50.07713 19.79905 802 ft 4 kts 54°
2026-04-17 11:34 50.07726 19.79960 802 ft 7 kts 80°
2026-04-17 11:35 50.07736 19.80040 802 ft 8 kts 76°
2026-04-17 11:35 50.07749 19.80136 802 ft 10 kts 74°
2026-04-17 11:35 50.07763 19.80246 802 ft 12 kts 80°
2026-04-17 11:35 50.07786 19.80333 802 ft 7 kts 34°
2026-04-17 11:36 50.07818 19.80345 802 ft 3 kts 349°
2026-04-17 11:36 50.07831 19.80341 802 ft 0 kts 349°
2026-04-17 11:37 50.07832 19.80341 802 ft 1 kts 349°
2026-04-17 11:37 50.07847 19.80336 803 ft 7 kts 349°
2026-04-17 11:38 50.07945 19.80304 802 ft 12 kts 345°
2026-04-17 11:38 50.07993 19.80283 802 ft 8 kts 341°
2026-04-17 11:38 50.08015 19.80225 802 ft 4 kts 275°
2026-04-17 11:38 50.08012 19.80198 803 ft 0 kts 257°
2026-04-17 11:39 50.07996 19.80083 803 ft 42 kts 258°
2026-04-17 11:39 50.07871 19.79178 803 ft 126 kts 258°
2026-04-17 11:40 50.07695 19.77567 1158 ft 163 kts 262°
2026-04-17 11:40 50.07445 19.75739 2069 ft 178 kts 262°
2026-04-17 11:40 50.07163 19.73882 3049 ft 181 kts 260°
2026-04-17 11:40 50.06871 19.71875 3780 ft 201 kts 261°
2026-04-17 11:41 50.06549 19.69633 4439 ft 224 kts 262°
2026-04-17 11:41 50.06193 19.67144 5177 ft 242 kts 261°
2026-04-17 11:41 50.05813 19.64485 5629 ft 261 kts 261°
2026-04-17 11:41 50.05421 19.61715 6645 ft 259 kts 262°
2026-04-17 11:42 50.05055 19.58953 7721 ft 263 kts 267°
2026-04-17 11:42 50.05335 19.56197 8783 ft 258 kts 296°
2026-04-17 11:42 50.06297 19.53840 9829 ft 261 kts 312°
2026-04-17 11:42 50.07493 19.51662 10708 ft 271 kts 308°
2026-04-17 11:43 50.08664 19.49289 11252 ft 289 kts 309°
2026-04-17 11:43 50.09955 19.46733 11920 ft 303 kts 309°
2026-04-17 11:43 50.11265 19.44180 12838 ft 306 kts 310°
2026-04-17 11:43 50.12613 19.41579 13757 ft 311 kts 310°
2026-04-17 11:44 50.13986 19.38947 14595 ft 315 kts 310°
2026-04-17 11:44 50.15379 19.36288 15364 ft 319 kts 310°
2026-04-17 11:44 50.16792 19.33592 16114 ft 323 kts 310°
2026-04-17 11:44 50.18226 19.30856 16871 ft 327 kts 311°
2026-04-17 11:45 50.19674 19.28091 17614 ft 331 kts 311°
2026-04-17 11:45 50.21142 19.25288 18348 ft 336 kts 311°
2026-04-17 11:45 50.22630 19.22440 18992 ft 340 kts 311°
2026-04-17 11:45 50.24133 19.19563 19618 ft 343 kts 311°
2026-04-17 11:46 50.25650 19.16655 20223 ft 347 kts 311°
2026-04-17 11:46 50.27163 19.13751 20810 ft 351 kts 311°
2026-04-17 11:46 50.28709 19.10782 21418 ft 354 kts 311°
2026-04-17 11:46 50.30276 19.07771 21998 ft 358 kts 311°
2026-04-17 11:47 50.31857 19.04725 22578 ft 362 kts 311°
2026-04-17 11:47 50.33456 19.01645 23145 ft 366 kts 311°
2026-04-17 11:47 50.35068 18.98534 23707 ft 369 kts 311°
2026-04-17 11:47 50.36698 18.95384 24170 ft 373 kts 311°
2026-04-17 11:48 50.38318 18.92249 24663 ft 375 kts 311°
2026-04-17 11:48 50.39964 18.89064 25130 ft 378 kts 311°
2026-04-17 11:48 50.41622 18.85849 25593 ft 380 kts 311°
2026-04-17 11:48 50.43289 18.82613 26057 ft 383 kts 311°
2026-04-17 11:49 50.44975 18.79336 26505 ft 385 kts 311°
2026-04-17 11:49 50.46645 18.76087 26937 ft 388 kts 311°
2026-04-17 11:49 50.48346 18.72773 27385 ft 390 kts 311°
2026-04-17 11:49 50.50057 18.69436 27814 ft 393 kts 311°
2026-04-17 11:50 50.51775 18.66080 28248 ft 395 kts 311°
2026-04-17 11:50 50.53503 18.62701 28660 ft 398 kts 311°
2026-04-17 11:50 50.55245 18.59290 29074 ft 400 kts 311°
2026-04-17 11:50 50.56994 18.55860 29478 ft 403 kts 311°
2026-04-17 11:51 50.58754 18.52406 29896 ft 405 kts 311°
2026-04-17 11:51 50.60508 18.48959 30405 ft 403 kts 311°
2026-04-17 11:51 50.62258 18.45514 30876 ft 402 kts 310°
2026-04-17 11:51 50.63971 18.42139 31341 ft 399 kts 311°
2026-04-17 11:52 50.65724 18.38680 31816 ft 397 kts 311°
2026-04-17 11:52 50.67431 18.35308 32156 ft 398 kts 311°
2026-04-17 11:52 50.70858 18.28521 32209 ft 394 kts 310°
2026-04-17 11:53 50.74233 18.21718 32203 ft 393 kts 309°
2026-04-17 11:53 50.77546 18.14821 32201 ft 393 kts 309°
2026-04-17 11:54 50.80852 18.07943 32204 ft 393 kts 309°
2026-04-17 11:54 50.84138 18.01089 32206 ft 392 kts 309°
2026-04-17 11:55 50.87435 17.94196 32206 ft 392 kts 309°
2026-04-17 11:55 50.90728 17.87291 32206 ft 392 kts 309°
2026-04-17 11:56 50.94010 17.80394 32210 ft 392 kts 309°
2026-04-17 11:56 50.97289 17.73483 32210 ft 391 kts 309°
2026-04-17 11:57 51.00538 17.66617 32213 ft 391 kts 309°
2026-04-17 11:57 51.03794 17.59717 32211 ft 390 kts 309°
2026-04-17 11:58 51.07042 17.52816 32211 ft 390 kts 309°
2026-04-17 11:58 51.10292 17.45894 32215 ft 389 kts 309°
2026-04-17 11:59 51.13510 17.39024 32216 ft 389 kts 309°
2026-04-17 11:59 51.17133 17.32774 32208 ft 382 kts 330°
2026-04-17 12:00 51.21999 17.29371 32219 ft 383 kts 338°
2026-04-17 12:00 51.26963 17.26245 32226 ft 383 kts 339°
2026-04-17 12:01 51.31936 17.23190 32226 ft 382 kts 339°
2026-04-17 12:01 51.36901 17.20153 32229 ft 382 kts 339°
2026-04-17 12:02 51.41872 17.17109 32234 ft 383 kts 339°
2026-04-17 12:02 51.46821 17.14072 32236 ft 383 kts 339°
2026-04-17 12:03 51.51798 17.11009 32239 ft 383 kts 339°
2026-04-17 12:03 51.56772 17.07942 32240 ft 383 kts 339°
2026-04-17 12:04 51.61742 17.04870 32241 ft 383 kts 339°
2026-04-17 12:04 51.66718 17.01787 32238 ft 383 kts 339°
2026-04-17 12:05 51.71657 16.98720 32243 ft 382 kts 339°
2026-04-17 12:05 51.76633 16.95622 32246 ft 383 kts 339°
2026-04-17 12:06 51.81605 16.92520 32246 ft 383 kts 339°
2026-04-17 12:06 51.86573 16.89413 32248 ft 382 kts 339°
2026-04-17 12:07 51.91503 16.86321 32255 ft 382 kts 339°
2026-04-17 12:07 51.96474 16.83197 32251 ft 382 kts 339°
2026-04-17 12:08 52.01430 16.80075 32250 ft 382 kts 339°
2026-04-17 12:08 52.06385 16.76946 32254 ft 378 kts 339°
2026-04-17 12:09 52.08788 16.75426 32261 ft 363 kts 339°
2026-04-17 12:09 52.11092 16.73968 32221 ft 349 kts 339°
2026-04-17 12:09 52.13265 16.72299 31896 ft 344 kts 326°
2026-04-17 12:09 52.15152 16.69905 31428 ft 344 kts 324°
2026-04-17 12:10 52.17049 16.67545 31002 ft 342 kts 324°
2026-04-17 12:10 52.18927 16.65179 30596 ft 340 kts 324°
2026-04-17 12:10 52.20786 16.62814 30172 ft 338 kts 323°
2026-04-17 12:10 52.22612 16.60479 29708 ft 336 kts 323°
2026-04-17 12:11 52.24446 16.58126 29301 ft 333 kts 323°
2026-04-17 12:11 52.26255 16.55799 28922 ft 330 kts 323°
2026-04-17 12:11 52.28046 16.53494 28554 ft 326 kts 323°
2026-04-17 12:12 52.31601 16.48910 27814 ft 328 kts 323°
2026-04-17 12:12 52.33410 16.46573 27437 ft 332 kts 323°
2026-04-17 12:12 52.35228 16.44222 27069 ft 333 kts 323°
2026-04-17 12:12 52.37041 16.41875 26716 ft 332 kts 323°
2026-04-17 12:13 52.38849 16.39532 26362 ft 331 kts 323°
2026-04-17 12:13 52.40630 16.37221 26002 ft 329 kts 323°
2026-04-17 12:13 52.42424 16.34891 25651 ft 328 kts 323°
2026-04-17 12:13 52.44210 16.32569 25308 ft 326 kts 323°
2026-04-17 12:14 52.45997 16.30243 24955 ft 325 kts 323°
2026-04-17 12:14 52.47735 16.27978 24617 ft 323 kts 323°
2026-04-17 12:14 52.49488 16.25693 24281 ft 321 kts 323°
2026-04-17 12:14 52.51363 16.23757 23948 ft 316 kts 336°
2026-04-17 12:15 52.53312 16.22157 23686 ft 311 kts 333°
2026-04-17 12:15 52.55210 16.20498 23357 ft 307 kts 333°
2026-04-17 12:15 52.57080 16.18840 23019 ft 304 kts 333°
2026-04-17 12:15 52.58929 16.17180 22689 ft 303 kts 332°
2026-04-17 12:16 52.60799 16.15490 22332 ft 308 kts 332°
2026-04-17 12:16 52.62689 16.13774 21992 ft 312 kts 332°
2026-04-17 12:16 52.64592 16.12042 21651 ft 312 kts 332°
2026-04-17 12:16 52.66457 16.10342 21317 ft 311 kts 332°
2026-04-17 12:17 52.68351 16.08613 20978 ft 309 kts 332°
2026-04-17 12:17 52.70220 16.06906 20636 ft 306 kts 332°
2026-04-17 12:17 52.72081 16.05204 20309 ft 304 kts 332°
2026-04-17 12:17 52.73931 16.03510 19977 ft 302 kts 332°
2026-04-17 12:18 52.75759 16.01833 19657 ft 300 kts 332°
2026-04-17 12:18 52.77585 16.00158 19331 ft 298 kts 332°
2026-04-17 12:18 52.79396 15.98496 19011 ft 296 kts 332°
2026-04-17 12:18 52.81196 15.96841 18694 ft 295 kts 332°
2026-04-17 12:19 52.82981 15.95199 18350 ft 293 kts 332°
2026-04-17 12:19 52.84738 15.93580 18018 ft 292 kts 332°
2026-04-17 12:19 52.86504 15.91953 17691 ft 289 kts 332°
2026-04-17 12:19 52.88256 15.90338 17386 ft 286 kts 332°
2026-04-17 12:20 52.89989 15.88735 17069 ft 283 kts 332°
2026-04-17 12:20 52.91702 15.87153 16772 ft 281 kts 332°
2026-04-17 12:20 52.93403 15.85580 16478 ft 279 kts 332°
2026-04-17 12:20 52.95114 15.83994 16170 ft 284 kts 332°
2026-04-17 12:21 52.96857 15.82378 15861 ft 288 kts 332°
2026-04-17 12:21 52.98606 15.80760 15560 ft 287 kts 333°
2026-04-17 12:21 53.00310 15.78974 14969 ft 296 kts 324°
2026-04-17 12:21 53.01966 15.76901 14353 ft 298 kts 325°
2026-04-17 12:22 53.03611 15.74891 13751 ft 296 kts 325°
2026-04-17 12:22 53.05272 15.72879 13113 ft 294 kts 326°
2026-04-17 12:22 53.06928 15.70887 12483 ft 293 kts 326°
2026-04-17 12:22 53.08577 15.68913 11874 ft 290 kts 326°
2026-04-17 12:23 53.10208 15.66962 11366 ft 288 kts 326°
2026-04-17 12:23 53.11842 15.65009 10967 ft 289 kts 326°
2026-04-17 12:23 53.13477 15.63054 10647 ft 288 kts 326°
2026-04-17 12:23 53.15103 15.61107 10362 ft 286 kts 326°
2026-04-17 12:24 53.16699 15.59198 10185 ft 280 kts 326°
2026-04-17 12:24 53.18268 15.57311 9854 ft 278 kts 325°
2026-04-17 12:24 53.19835 15.55432 9378 ft 274 kts 325°
2026-04-17 12:24 53.21364 15.53595 8979 ft 267 kts 325°
2026-04-17 12:25 53.22860 15.51798 8684 ft 264 kts 325°
2026-04-17 12:25 53.24348 15.50007 8356 ft 262 kts 325°
2026-04-17 12:25 53.25824 15.48213 8058 ft 263 kts 322°
2026-04-17 12:25 53.27145 15.46088 7524 ft 264 kts 315°
2026-04-17 12:26 53.28430 15.43880 6984 ft 265 kts 316°
2026-04-17 12:26 53.29710 15.41723 6480 ft 264 kts 316°
2026-04-17 12:26 53.30904 15.39724 6093 ft 259 kts 316°
2026-04-17 12:26 53.32211 15.37550 5748 ft 258 kts 317°
2026-04-17 12:27 53.33491 15.35434 5455 ft 258 kts 317°
2026-04-17 12:27 53.34778 15.33315 5140 ft 260 kts 317°
2026-04-17 12:27 53.35633 15.31902 4913 ft 262 kts 316°
2026-04-17 12:27 53.36949 15.29821 4583 ft 262 kts 323°
2026-04-17 12:28 53.38396 15.27973 4324 ft 260 kts 322°
2026-04-17 12:28 53.39728 15.25992 4195 ft 249 kts 317°
2026-04-17 12:28 53.40917 15.23958 4104 ft 239 kts 314°
2026-04-17 12:28 53.42023 15.21929 4000 ft 233 kts 314°
2026-04-17 12:29 53.43095 15.19912 3844 ft 230 kts 313°
2026-04-17 12:29 53.44136 15.17925 3739 ft 230 kts 312°
2026-04-17 12:29 53.45186 15.15908 3547 ft 228 kts 314°
2026-04-17 12:29 53.46196 15.13960 3565 ft 213 kts 313°
2026-04-17 12:30 53.47144 15.12137 3385 ft 204 kts 313°
2026-04-17 12:30 53.48073 15.10332 3104 ft 204 kts 313°
2026-04-17 12:30 53.48999 15.08563 2833 ft 196 kts 313°
2026-04-17 12:30 53.49870 15.06881 2592 ft 189 kts 313°
2026-04-17 12:31 53.50723 15.05235 2357 ft 180 kts 314°
2026-04-17 12:31 53.51504 15.03736 2135 ft 162 kts 313°
2026-04-17 12:31 53.52211 15.02359 1928 ft 152 kts 313°
2026-04-17 12:31 53.52893 15.01046 1613 ft 146 kts 310°
2026-04-17 12:32 53.53555 14.99750 1424 ft 146 kts 310°
2026-04-17 12:32 53.54222 14.98459 1232 ft 146 kts 310°
2026-04-17 12:32 53.54888 14.97171 1048 ft 145 kts 310°
2026-04-17 12:32 53.55550 14.95883 835 ft 145 kts 310°
2026-04-17 12:33 53.56208 14.94601 670 ft 144 kts 310°
2026-04-17 12:33 53.56851 14.93340 487 ft 145 kts 311°
2026-04-17 12:33 53.57527 14.92049 271 ft 145 kts 311°
2026-04-17 12:33 53.58165 14.90815 158 ft 120 kts 311°
2026-04-17 12:34 53.58565 14.90044 148 ft 65 kts 310°
2026-04-17 12:34 53.58861 14.89473 141 ft 60 kts 310°
2026-04-17 12:34 53.59038 14.89143 137 ft 14 kts 325°
2026-04-17 12:34 53.59109 14.89165 134 ft 12 kts 44°
2026-04-17 12:35 53.59164 14.89264 134 ft 8 kts 65°
2026-04-17 12:35 53.59144 14.89360 135 ft 10 kts 141°
2026-04-17 12:35 53.59106 14.89452 136 ft 8 kts 73°
2026-04-17 12:35 53.59163 14.89546 136 ft 11 kts 40°
2026-04-17 12:37 53.59250 14.89588 136 ft 0 kts 308°